QPF
0.00 0.00 0.00 0.00 0.00 0.00 0.00 0.00 0.00 0.00 0.00 0.00 0.00 0.00 0.00 0.00 0.00 0.00 0.00 0.00 0.00 0.00 0.00 0.00 0.00 0.00 0.00 0.00 0.00 0.00 0.00 0.00 0.00 0.00 0.00 0.00 0.00 0.00 0.00 0.00 0.00 0.00 0.00 0.00
0.00 0.00 0.00 0.00 0.00 0.00 0.00 0.00 0.00 0.00 0.00 0.00 0.00 0.00 0.00 0.00 0.00 0.00 0.00 0.00 0.00 0.00 0.00 0.00 0.00 0.00 0.00 0.00 0.00 0.00 0.00 0.00 0.00 0.00 0.00 0.00 0.00 0.00 0.00 0.00 0.00 0.00 0.00 0.00
0.00 0.00 0.00 0.00 0.00 0.00 0.00 0.00 0.00 0.00 0.00 0.00 0.00 0.00 0.00 0.00 0.00 0.00 0.00 0.00 0.00 0.00 0.00 0.00 0.00 0.00 0.00 0.00 0.00 0.00 0.00 0.00 0.00 0.00 0.00 0.00 0.00 0.00 0.00 0.00 0.00 0.00 0.00 0.00
0.00 0.00 0.00 0.00 0.00 0.00 0.00 0.00 0.00 0.00 0.00 0.00 0.00 0.00 0.00 0.00 0.00 0.00 0.00 0.00 0.00 0.00 0.00 0.00 0.00 0.00 0.00 0.00 0.00 0.00 0.00 0.00 0.00 0.00 0.00 0.00 0.00 0.00 0.00 0.00 0.00 0.00 0.00 0.00
0.00 0.00 0.00 0.00 0.00 0.00 0.00 0.00 0.00 0.00 0.00 0.00 0.00 0.00 0.00 0.00 0.00 0.00 0.00 0.00 0.00 0.00 0.00 0.00 0.00 0.00 0.00 0.00 0.00 0.00 0.00 0.00 0.00 0.00 0.00 0.00 0.00 0.00 0.00 0.00 0.00 0.00 0.00 0.00
0.00 0.00 0.00 0.00 0.00 0.00 0.00 0.00 0.00 0.00 0.00 0.00 0.00 0.00 0.00 0.00 0.00 0.00 0.00 0.00 0.00 0.00 0.00 0.00 0.00 0.00 0.00 0.00 0.00 0.00 0.00 0.00 0.00 0.00 0.00 0.00 0.00 0.00 0.00 0.00 0.00 0.00 0.00 0.00
0.00 0.00 0.00 0.00 0.00 0.00 0.00 0.00 0.00 0.00 0.00 0.00 0.00 0.00 0.00 0.00 0.00 0.00 0.00 0.00 0.00 0.00 0.00 0.00 0.00 0.00 0.00 0.00 0.00 0.00 0.00 0.00 0.00 0.00 0.00 0.00 0.00 0.00 0.00 0.00 0.00 0.00 0.00 0.00
0.00 0.00 0.00 0.00 0.00 0.00 0.00 0.00 0.00 0.00 0.00 0.00 0.00 0.00 0.00 0.00 0.00 0.00 0.00 0.00 0.00 0.00 0.00 0.00 0.00 0.00 0.00 0.00 0.00 0.00 0.00 0.00 0.00 0.00 0.00 0.00 0.00 0.00 0.00 0.00 0.00 0.00 0.00 0.00
0.00 0.00 0.00 0.00 0.00 0.00 0.00 0.00 0.00 0.00 0.00 0.00 0.00 0.00 0.00 0.00 0.00 0.00 0.00 0.00 0.00 0.00 0.00 0.00 0.00 0.00 0.00 0.00 0.00 0.00 0.00 0.00 0.00 0.00 0.00 0.00 0.00 0.00 0.00 0.00 0.00 0.00 0.00 0.00
0.00 0.00 0.00 0.00 0.00 0.00 0.00 0.00 0.00 0.00 0.00 0.00 0.00 0.00 0.00 0.00 0.00 0.00 0.00 0.00 0.00 0.00 0.00 0.00 0.00 0.00 0.00 0.00 0.00 0.00 0.00 0.00 0.00 0.00 0.00 0.00 0.00 0.00 0.00 0.00 0.00 0.00 0.00 0.00
0.00 0.00 0.00 0.00 0.00 0.00 0.00 0.00 0.00 0.00 0.00 0.00 0.00 0.00 0.00 0.00 0.00 0.00 0.00 0.00 0.00 0.00 0.00 0.00 0.00 0.00 0.00 0.00 0.00 0.00 0.00 0.00 0.00 0.00 0.00 0.00 0.00 0.00 0.00 0.00 0.00 0.00 0.00 0.00
0.00 0.00 0.00 0.00 0.00 0.00 0.00 0.00 0.00 0.00 0.00 0.00 0.00 0.00 0.00 0.00 0.00 0.00 0.00 0.00 0.00 0.00 0.00 0.00 0.00 0.00 0.00 0.00 0.00 0.00 0.00 0.00 0.00 0.00 0.00 0.00 0.00 0.00 0.00 0.00 0.00 0.00 0.00 0.00
0.00 0.00 0.00 0.00 0.00 0.00 0.00 0.00 0.00 0.00 0.00 0.00 0.00 0.00 0.00 0.00 0.00 0.00 0.00 0.00 0.00 0.00 0.00 0.00 0.00 0.00 0.00 0.00 0.00 0.00 0.00 0.00 0.00 0.00 0.00 0.00 0.00 0.00 0.00 0.00 0.00 0.00 0.00 0.00
0.00 0.00 0.00 0.00 0.00 0.00 0.00 0.00 0.00 0.00 0.00 0.00 0.00 0.00 0.00 0.00 0.00 0.00 0.00 0.00 0.00 0.00 0.00 0.00 0.00 0.00 0.00 0.00 0.00 0.00 0.00 0.00 0.00 0.00 0.00 0.00 0.00 0.00 0.00 0.00 0.00 0.00 0.00 0.00
0.00 0.00 0.00 0.00 0.00 0.00 0.00 0.00 0.00 0.00 0.00 0.00 0.00 0.00 0.00 0.00 0.00 0.00 0.00 0.00 0.00 0.00 0.00 0.00 0.00 0.00 0.00 0.00 0.00 0.00 0.00 0.00 0.00 0.00 0.00 0.00 0.00 0.00 0.00 0.00 0.00 0.00 0.00 0.00
0.00 0.00 0.00 0.00 0.00 0.00 0.00 0.00 0.00 0.00 0.00 0.00 0.00 0.00 0.00 0.00 0.00 0.00 0.00 0.00 0.00 0.00 0.00 0.00 0.00 0.00 0.00 0.00 0.00 0.00 0.00 0.00 0.00 0.00 0.00 0.00 0.00 0.00 0.00 0.00 0.00 0.00 0.00 0.00
0.00 0.00 0.00 0.00 0.00 0.00 0.00 0.00 0.00 0.00 0.00 0.00 0.00 0.00 0.00 0.00 0.00 0.00 0.00 0.00 0.00 0.00 0.00 0.00 0.00 0.00 0.00 0.00 0.00 0.00 0.00 0.00 0.00 0.00 0.00 0.00 0.00 0.00 0.00 0.00 0.00 0.00 0.00 0.00
0.00 0.00 0.00 0.00 0.00 0.00 0.00 0.00 0.00 0.00 0.00 0.00 0.00 0.00 0.00 0.00 0.00 0.00 0.00 0.00 0.00 0.00 0.00 0.00 0.00 0.00 0.00 0.00 0.00 0.00 0.00 0.00 0.00 0.00 0.00 0.00 0.00 0.00 0.00 0.00 0.00 0.00 0.00 0.00
0.00 0.00 0.00 0.00 0.00 0.00 0.00 0.00 0.00 0.00 0.00 0.00 0.00 0.00 0.00 0.00 0.00 0.00 0.00 0.00 0.00 0.00 0.00 0.00 0.00 0.00 0.00 0.00 0.00 0.00 0.00 0.00 0.00 0.00 0.00 0.00 0.00 0.00 0.00 0.00 0.00 0.00 0.00 0.00
0.00 0.00 0.00 0.00 0.00 0.00 0.00 0.00 0.00 0.00 0.00 0.00 0.00 0.00 0.00 0.00 0.00 0.00 0.00 0.00 0.00 0.00 0.00 0.00 0.00 0.00 0.00 0.00 0.00 0.00 0.00 0.00 0.00 0.00 0.00 0.00 0.00 0.00 0.00 0.00 0.00 0.00 0.00 0.00
0.00 0.00 0.00 0.00 0.00 0.00 0.00 0.00 0.00 0.00 0.00 0.00 0.00 0.00 0.00 0.00 0.00 0.00 0.00 0.00 0.00 0.00 0.00 0.00 0.00 0.00 0.00 0.00 0.00 0.00 0.00 0.00 0.00 0.00 0.00 0.00 0.00 0.00 0.00 0.00 0.00 0.00 0.00 0.00
0.00 0.00 0.00 0.00 0.00 0.00 0.00 0.00 0.00 0.00 0.00 0.00 0.00 0.00 0.00 0.00 0.00 0.00 0.00 0.00 0.00 0.00 0.00 0.00 0.00 0.00 0.00 0.00 0.00 0.00 0.00 0.00 0.00 0.00 0.00 0.00 0.00 0.00 0.00 0.00 0.00 0.00 0.00 0.00
0.00 0.00 0.00 0.00 0.00 0.00 0.00 0.00 0.00 0.00 0.00 0.00 0.00 0.00 0.00 0.00 0.00 0.00 0.00 0.00 0.00 0.00 0.00 0.00 0.00 0.00 0.00 0.00 0.00 0.00 0.00 0.00 0.00 0.00 0.00 0.00 0.00 0.00 0.00 0.00 0.00 0.00 0.00 0.00
0.00 0.00 0.00 0.00 0.00 0.00 0.00 0.00 0.00 0.00 0.00 0.00 0.00 0.00 0.00 0.00 0.00 0.00 0.00 0.00 0.00 0.00 0.00 0.00 0.00 0.00 0.00 0.00 0.00 0.00 0.00 0.00 0.00 0.00 0.00 0.00 0.00 0.00 0.00 0.00 0.00 0.00 0.00 0.00
0.01 0.01 0.00 0.00 0.00 0.00 0.00 0.00 0.00 0.00 0.00 0.00 0.00 0.00 0.00 0.00 0.00 0.00 0.00 0.00 0.00 0.00 0.00 0.00 0.00 0.00 0.00 0.00 0.00 0.00 0.00 0.00 0.00 0.00 0.00 0.00 0.00 0.00 0.00 0.00 0.00 0.00 0.00 0.00
0.00 0.00 0.00 0.00 0.00 0.00 0.00 0.00 0.00 0.00 0.00 0.00 0.00 0.00 0.00 0.00 0.00 0.00 0.00 0.00 0.00 0.00 0.00 0.00 0.00 0.00 0.00 0.00 0.00 0.00 0.00 0.00 0.00 0.00 0.00 0.00 0.00 0.00 0.00 0.00 0.00 0.00 0.00 0.00
MSLP
1014.04 1014.41 1014.15 1013.69 1013.49 1013.30 1013.15 1013.34 1013.44 1013.03 1013.30 1013.56 1013.02 1012.16 1010.47 1010.20 1010.17 1010.50 1010.79 1011.28 1011.26 1011.82 1012.47 1012.62 1013.23 1013.66 1014.15 1014.67 1014.99 1015.29 1015.63 1015.82 1015.98 1016.28 1016.55 1016.47 1016.47 1016.10 1015.78 1015.52 1015.33 1015.26 1015.04 1014.92
1014.68 1014.20 1013.63 1013.36 1013.27 1013.28 1013.31 1013.48 1013.60 1013.33 1013.59 1013.78 1012.96 1011.67 1010.10 1009.71 1009.85 1010.22 1010.40 1010.60 1011.02 1011.89 1012.70 1013.13 1013.44 1013.66 1014.18 1014.73 1015.04 1015.33 1015.53 1015.79 1016.00 1016.30 1016.35 1016.32 1016.26 1015.97 1015.53 1015.42 1015.33 1015.22 1015.13 1015.05
1014.54 1014.04 1013.73 1013.53 1013.52 1013.63 1013.72 1013.78 1013.94 1014.34 1014.05 1013.84 1013.49 1011.61 1010.35 1009.90 1009.84 1010.23 1010.38 1010.58 1011.24 1011.76 1012.50 1012.97 1013.36 1013.87 1014.35 1014.78 1015.08 1015.38 1015.62 1015.75 1016.02 1016.19 1016.20 1016.27 1016.11 1015.89 1015.59 1015.54 1015.41 1015.39 1015.13 1015.07
1014.64 1014.22 1014.20 1014.03 1013.92 1013.98 1014.39 1014.27 1014.53 1014.85 1015.08 1015.11 1014.09 1013.20 1011.09 1010.22 1010.29 1010.54 1010.68 1010.88 1011.43 1011.76 1011.97 1012.48 1013.25 1013.93 1014.51 1014.95 1015.21 1015.35 1015.54 1015.77 1016.02 1016.16 1016.38 1016.55 1016.37 1016.30 1015.93 1015.69 1015.53 1015.47 1015.28 1015.26
1014.76 1014.85 1014.84 1014.68 1014.56 1014.43 1014.82 1015.02 1015.32 1015.69 1016.09 1016.06 1014.97 1014.53 1010.86 1010.43 1010.45 1010.41 1010.68 1010.97 1011.46 1011.65 1011.78 1012.40 1013.28 1014.03 1014.71 1015.05 1015.38 1015.48 1015.56 1015.85 1016.05 1016.14 1016.37 1016.53 1016.41 1016.24 1015.98 1015.62 1015.51 1015.47 1015.43 1015.31
1015.39 1015.46 1015.42 1015.24 1015.45 1015.38 1015.61 1015.84 1016.22 1016.60 1017.05 1016.78 1015.27 1014.51 1011.34 1010.29 1009.41 1009.70 1010.22 1010.69 1011.29 1011.74 1011.91 1012.62 1013.38 1014.13 1014.77 1015.00 1015.43 1015.61 1015.76 1015.95 1015.99 1016.17 1016.30 1016.25 1016.28 1016.19 1016.10 1015.93 1015.82 1015.63 1015.54 1015.52
1016.01 1015.95 1015.88 1015.74 1016.15 1016.32 1016.27 1016.58 1017.42 1018.00 1018.04 1017.04 1015.49 1014.76 1010.78 1009.16 1008.74 1008.61 1009.63 1010.50 1011.12 1011.57 1012.03 1012.75 1013.41 1014.04 1014.58 1015.04 1015.33 1015.52 1015.77 1016.03 1016.01 1016.19 1016.06 1016.11 1016.14 1016.28 1016.31 1016.31 1016.21 1015.98 1015.81 1015.79
1016.11 1016.55 1016.27 1016.06 1015.93 1015.94 1016.55 1016.54 1017.05 1017.63 1018.28 1016.86 1015.52 1013.60 1009.97 1008.86 1008.45 1008.68 1009.16 1010.00 1010.97 1011.48 1011.73 1012.38 1013.12 1013.75 1014.53 1015.05 1015.30 1015.44 1015.74 1015.94 1016.11 1016.04 1016.12 1016.16 1016.37 1016.30 1016.28 1016.23 1016.23 1016.21 1016.10 1015.95
1015.51 1016.31 1016.75 1016.74 1016.64 1016.58 1016.68 1016.71 1016.16 1017.01 1018.59 1016.93 1014.27 1012.01 1009.54 1009.03 1008.93 1009.03 1009.52 1010.13 1010.86 1011.20 1011.65 1012.22 1012.99 1013.64 1014.34 1014.84 1015.20 1015.54 1015.73 1015.92 1016.12 1015.95 1016.27 1016.32 1016.38 1016.36 1016.44 1016.30 1016.20 1016.24 1016.07 1015.72
1014.06 1015.95 1017.39 1017.55 1017.22 1016.98 1016.48 1016.68 1016.58 1016.84 1017.81 1016.66 1013.99 1012.22 1009.94 1009.14 1008.91 1009.07 1009.62 1009.96 1010.52 1010.94 1011.58 1012.20 1012.93 1013.73 1014.47 1014.79 1015.03 1015.56 1015.73 1015.97 1016.10 1016.09 1016.12 1016.13 1016.20 1016.55 1016.39 1016.18 1016.09 1016.05 1015.83 1015.52
1013.97 1015.24 1018.07 1018.08 1017.56 1016.81 1017.10 1016.50 1016.35 1016.03 1016.09 1015.50 1014.06 1010.99 1008.38 1007.95 1007.91 1008.33 1008.93 1009.40 1009.95 1010.64 1011.44 1012.00 1012.81 1013.68 1014.49 1014.73 1015.04 1015.65 1015.87 1016.01 1016.12 1015.99 1015.91 1016.20 1016.39 1016.52 1016.37 1016.12 1015.96 1015.79 1015.47 1015.18
1014.09 1015.25 1017.46 1017.40 1017.34 1016.92 1016.54 1015.82 1015.40 1015.36 1015.89 1015.24 1013.67 1010.48 1007.94 1007.34 1007.39 1007.77 1008.21 1008.81 1009.58 1010.42 1011.13 1011.86 1012.67 1013.65 1014.68 1015.04 1015.31 1015.71 1016.04 1016.11 1016.14 1015.91 1016.00 1016.31 1016.42 1016.53 1016.21 1016.12 1015.84 1015.71 1015.21 1014.68
1014.03 1015.04 1016.91 1017.60 1017.64 1017.05 1016.41 1015.48 1014.85 1014.81 1014.81 1014.49 1013.33 1010.26 1008.20 1007.76 1007.90 1007.83 1008.12 1008.92 1009.71 1010.52 1011.23 1011.95 1012.92 1013.78 1014.49 1015.13 1015.41 1015.78 1016.08 1016.27 1016.21 1016.02 1016.13 1016.37 1016.41 1016.25 1016.04 1016.10 1015.85 1015.53 1014.74 1014.91
1014.18 1015.12 1015.98 1016.24 1015.34 1014.78 1015.41 1014.50 1014.03 1014.08 1014.34 1013.47 1011.95 1010.06 1008.62 1008.29 1008.20 1008.40 1008.55 1008.89 1009.73 1010.60 1011.29 1011.97 1012.95 1013.59 1014.28 1014.91 1015.17 1015.77 1016.21 1016.40 1016.35 1016.23 1016.31 1016.44 1016.49 1016.21 1016.14 1015.93 1015.87 1015.53 1015.27 1014.63
1014.95 1015.45 1015.72 1015.46 1015.10 1014.72 1014.06 1013.72 1013.59 1013.58 1012.48 1012.25 1011.39 1010.27 1008.31 1007.64 1007.84 1008.22 1008.45 1009.05 1009.79 1010.42 1011.23 1011.74 1012.57 1013.47 1014.07 1014.74 1015.23 1015.65 1016.16 1016.59 1016.42 1016.36 1016.47 1016.50 1016.52 1016.35 1016.22 1016.05 1016.01 1015.87 1015.63 1015.32
1015.34 1015.55 1015.72 1015.36 1014.85 1014.39 1013.74 1012.75 1012.85 1012.92 1012.45 1011.70 1010.61 1009.41 1007.29 1006.63 1007.01 1007.72 1007.95 1008.74 1009.30 1009.67 1010.42 1011.09 1011.94 1013.09 1013.71 1014.30 1014.82 1015.55 1015.83 1016.43 1016.65 1016.54 1016.62 1016.58 1016.54 1016.65 1016.45 1016.35 1016.20 1016.05 1016.19 1016.12
1015.47 1015.54 1015.82 1015.13 1014.67 1014.08 1012.65 1010.92 1011.22 1011.18 1010.56 1010.01 1009.68 1007.44 1006.86 1006.68 1006.73 1006.42 1007.01 1007.79 1008.13 1008.38 1009.18 1010.24 1010.89 1012.19 1013.08 1013.75 1014.27 1015.17 1015.69 1016.03 1016.71 1016.88 1016.74 1016.87 1016.80 1016.87 1016.94 1016.88 1016.64 1016.71 1016.65 1016.67
1015.21 1015.42 1015.56 1015.37 1014.68 1012.79 1009.36 1008.45 1008.36 1008.03 1007.70 1007.80 1007.13 1006.07 1005.51 1005.48 1005.43 1005.58 1005.89 1006.26 1006.99 1007.44 1008.07 1008.92 1009.82 1011.43 1012.37 1013.46 1014.18 1014.96 1015.64 1015.83 1016.54 1017.15 1016.96 1017.09 1017.10 1017.07 1017.20 1017.28 1017.26 1017.28 1017.31 1017.40
1014.74 1014.74 1014.70 1014.28 1013.56 1010.41 1008.06 1008.09 1007.67 1007.43 1006.00 1005.54 1005.44 1004.90 1004.56 1004.90 1005.14 1004.90 1005.04 1005.10 1005.54 1006.35 1007.01 1007.74 1008.72 1010.42 1011.65 1012.92 1013.83 1014.68 1015.75 1015.83 1016.19 1017.01 1017.12 1017.21 1017.40 1017.36 1017.37 1017.70 1017.92 1018.09 1018.11 1018.37
1013.78 1013.92 1013.72 1013.17 1012.03 1009.81 1006.82 1005.83 1005.41 1005.90 1004.77 1003.85 1004.02 1003.72 1004.20 1004.96 1004.92 1003.87 1004.12 1004.50 1005.33 1005.92 1006.65 1007.64 1008.75 1010.11 1011.39 1012.57 1013.61 1014.80 1015.60 1016.14 1016.30 1016.70 1017.20 1017.27 1017.47 1017.60 1017.72 1018.07 1018.48 1018.74 1018.90 1019.17
1012.96 1012.96 1012.30 1011.83 1010.84 1008.10 1005.99 1005.56 1005.36 1005.20 1004.44 1002.29 1002.54 1002.23 1003.87 1004.49 1003.36 1003.45 1003.86 1004.80 1005.70 1006.36 1007.06 1007.92 1008.92 1009.85 1011.02 1012.10 1013.21 1014.35 1015.23 1016.04 1016.05 1016.75 1017.42 1017.60 1017.73 1017.90 1018.07 1018.30 1018.77 1019.14 1019.32 1019.68
1011.72 1011.97 1011.57 1011.14 1010.00 1007.41 1004.93 1004.97 1004.67 1003.45 1002.62 1002.52 1002.46 1002.75 1002.51 1001.98 1002.98 1003.70 1004.25 1005.30 1006.12 1006.80 1007.58 1008.33 1009.17 1010.01 1011.20 1011.92 1012.85 1014.01 1014.88 1015.48 1015.84 1016.43 1017.48 1018.07 1018.32 1018.49 1018.58 1018.82 1019.36 1019.74 1019.99 1020.46
1010.43 1009.52 1009.40 1008.84 1006.76 1005.45 1004.80 1003.65 1003.02 1003.04 1003.13 1002.92 1002.86 1002.81 1002.92 1003.21 1003.44 1003.94 1004.59 1005.45 1006.44 1007.26 1007.74 1008.49 1009.30 1010.23 1011.44 1011.81 1012.72 1013.38 1014.54 1015.63 1015.83 1016.54 1017.40 1018.16 1018.73 1019.07 1019.28 1019.52 1020.01 1020.45 1020.64 1020.95
1009.02 1008.03 1008.12 1007.76 1005.64 1005.43 1004.80 1003.82 1003.23 1002.73 1002.83 1002.85 1002.77 1002.82 1002.95 1003.35 1003.60 1004.13 1004.75 1005.42 1006.43 1007.53 1008.17 1008.69 1009.42 1010.46 1011.57 1011.83 1012.72 1013.33 1014.10 1015.16 1016.06 1016.36 1017.04 1017.59 1018.46 1019.53 1019.87 1019.97 1020.32 1020.55 1020.77 1021.17
1007.72 1007.55 1006.71 1006.14 1005.58 1005.07 1004.59 1003.77 1002.96 1002.54 1002.64 1002.81 1002.74 1002.97 1003.06 1003.60 1003.77 1004.45 1004.71 1005.56 1006.33 1007.21 1008.10 1008.85 1009.39 1010.14 1011.20 1011.47 1012.50 1013.49 1013.93 1014.94 1015.99 1016.54 1017.13 1018.04 1018.56 1019.31 1020.04 1020.57 1020.73 1021.14 1021.22 1021.32
1007.32 1006.74 1006.53 1005.02 1004.86 1004.32 1004.03 1003.51 1002.84 1002.91 1002.73 1002.66 1002.99 1002.99 1002.61 1003.99 1003.95 1004.62 1005.44 1005.48 1006.27 1007.00 1007.80 1008.78 1009.45 1010.17 1011.04 1011.33 1012.35 1013.33 1013.56 1014.58 1015.57 1016.70 1017.41 1018.15 1018.73 1019.09 1019.91 1020.76 1021.43 1021.58 1021.65 1021.55
Thickness
5647 5638 5632 5643 5647 5654 5656 5651 5644 5648 5648 5644 5644 5651 5672 5671 5672 5665 5664 5660 5660 5655 5648 5643 5636 5628 5620 5613 5606 5598 5591 5584 5574 5562 5550 5539 5526 5517 5509 5503 5498 5494 5492 5490
5632 5630 5644 5652 5652 5651 5649 5644 5635 5648 5642 5640 5643 5657 5670 5674 5672 5669 5666 5666 5662 5648 5640 5636 5628 5625 5617 5608 5601 5593 5587 5579 5568 5556 5545 5532 5519 5511 5504 5495 5490 5487 5486 5486
5623 5639 5643 5646 5642 5642 5641 5638 5637 5632 5631 5637 5635 5653 5667 5669 5668 5663 5663 5663 5651 5644 5639 5633 5627 5619 5610 5603 5596 5589 5581 5573 5563 5552 5540 5525 5512 5502 5495 5487 5482 5479 5480 5482
5623 5633 5633 5634 5636 5636 5633 5632 5630 5628 5620 5619 5634 5622 5648 5659 5655 5654 5653 5654 5648 5646 5644 5636 5625 5616 5606 5597 5591 5585 5578 5569 5559 5547 5532 5515 5502 5489 5482 5477 5474 5472 5474 5477
5616 5617 5621 5625 5630 5631 5628 5625 5621 5619 5611 5609 5620 5609 5643 5656 5651 5651 5647 5647 5644 5642 5641 5633 5622 5610 5600 5592 5585 5580 5574 5564 5554 5542 5526 5507 5492 5481 5474 5473 5469 5468 5468 5471
5603 5608 5613 5617 5611 5615 5614 5615 5612 5604 5595 5575 5615 5606 5634 5645 5658 5656 5652 5647 5642 5637 5637 5626 5615 5604 5596 5590 5583 5577 5570 5561 5552 5538 5522 5505 5487 5474 5468 5463 5461 5461 5464 5467
5594 5600 5601 5608 5602 5603 5608 5601 5569 5580 5567 5595 5610 5601 5634 5661 5667 5662 5652 5645 5639 5636 5629 5618 5612 5602 5594 5588 5582 5576 5568 5559 5550 5536 5521 5503 5484 5471 5462 5456 5453 5456 5461 5465
5581 5578 5587 5596 5605 5605 5591 5601 5589 5584 5586 5598 5600 5608 5647 5659 5661 5659 5652 5645 5637 5632 5630 5621 5612 5603 5593 5586 5580 5575 5568 5560 5549 5537 5520 5502 5483 5471 5464 5461 5458 5459 5463 5468
5571 5578 5574 5575 5582 5591 5592 5583 5604 5570 5518 5572 5613 5630 5651 5652 5654 5652 5646 5640 5634 5632 5627 5622 5612 5601 5593 5586 5580 5572 5567 5560 5550 5539 5522 5507 5490 5482 5473 5470 5470 5470 5473 5479
5580 5554 5544 5559 5571 5578 5582 5586 5583 5557 5571 5576 5599 5623 5632 5641 5644 5644 5641 5638 5634 5631 5624 5617 5609 5599 5590 5585 5581 5571 5567 5560 5551 5541 5530 5518 5505 5493 5488 5486 5484 5483 5486 5490
5559 5562 5523 5542 5545 5561 5560 5558 5580 5588 5579 5585 5573 5615 5648 5652 5653 5650 5643 5641 5636 5629 5622 5616 5608 5597 5588 5583 5579 5571 5566 5560 5554 5545 5538 5527 5515 5505 5499 5497 5496 5495 5498 5501
5557 5534 5498 5532 5537 5551 5557 5578 5584 5583 5581 5557 5569 5608 5656 5657 5657 5652 5649 5644 5637 5629 5622 5615 5605 5595 5583 5579 5575 5569 5565 5560 5556 5550 5542 5533 5525 5517 5514 5511 5508 5506 5510 5517
5547 5524 5496 5522 5526 5532 5544 5564 5582 5587 5570 5554 5581 5610 5644 5646 5647 5653 5648 5639 5630 5623 5617 5610 5600 5591 5583 5576 5573 5568 5564 5560 5557 5553 5545 5539 5532 5527 5524 5520 5520 5523 5526 5524
5534 5510 5519 5543 5572 5551 5532 5554 5578 5581 5540 5579 5581 5611 5640 5622 5623 5638 5639 5635 5623 5617 5614 5607 5598 5591 5584 5576 5574 5566 5562 5560 5556 5555 5548 5542 5538 5535 5532 5529 5528 5531 5533 5538
5515 5503 5490 5508 5534 5549 5557 5549 5556 5566 5596 5591 5598 5597 5635 5632 5617 5615 5627 5629 5616 5603 5600 5600 5594 5588 5581 5575 5571 5567 5560 5557 5556 5556 5550 5544 5540 5539 5537 5537 5534 5534 5537 5540
5493 5490 5488 5503 5500 5514 5527 5548 5537 5551 5540 5547 5554 5580 5628 5639 5629 5610 5620 5620 5619 5615 5603 5598 5594 5586 5581 5574 5571 5566 5562 5556 5555 5555 5551 5549 5545 5539 5538 5538 5539 5539 5538 5540
5481 5481 5483 5490 5485 5503 5529 5539 5544 5547 5557 5583 5574 5619 5625 5624 5626 5628 5627 5623 5623 5624 5620 5604 5601 5590 5582 5577 5574 5568 5562 5559 5554 5551 5550 5548 5546 5542 5538 5537 5539 5538 5538 5539
5469 5478 5479 5483 5481 5520 5567 5565 5573 5584 5592 5586 5597 5613 5626 5626 5630 5629 5629 5631 5628 5628 5624 5616 5607 5593 5583 5574 5569 5565 5560 5560 5553 5547 5550 5548 5546 5544 5539 5536 5536 5536 5535 5535
5468 5473 5478 5487 5479 5533 5562 5552 5552 5560 5590 5595 5599 5615 5620 5617 5621 5628 5629 5632 5635 5629 5625 5619 5611 5597 5586 5576 5569 5564 5556 5556 5556 5547 5548 5546 5544 5543 5542 5537 5535 5533 5533 5530
5462 5468 5479 5482 5498 5501 5563 5569 5558 5566 5563 5599 5599 5607 5607 5598 5599 5631 5629 5624 5624 5621 5616 5609 5599 5592 5582 5574 5567 5558 5553 5550 5551 5547 5544 5544 5543 5542 5540 5536 5532 5529 5529 5526
5458 5458 5473 5488 5497 5512 5544 5550 5559 5540 5570 5603 5600 5607 5589 5592 5623 5622 5611 5611 5607 5605 5603 5597 5592 5590 5581 5572 5566 5558 5551 5547 5548 5542 5537 5538 5538 5538 5537 5535 5531 5528 5527 5524
5453 5451 5460 5470 5481 5509 5544 5543 5549 5574 5581 5586 5588 5587 5594 5613 5602 5599 5600 5595 5592 5592 5590 5587 5584 5581 5571 5568 5564 5555 5550 5547 5545 5541 5533 5529 5529 5530 5530 5529 5524 5521 5520 5518
5451 5465 5463 5475 5509 5536 5531 5552 5555 5555 5553 5563 5568 5574 5581 5582 5586 5587 5587 5584 5580 5579 5580 5576 5575 5569 5561 5563 5559 5556 5545 5539 5540 5536 5531 5524 5521 5520 5521 5521 5517 5514 5513 5512
5444 5462 5467 5473 5508 5511 5519 5533 5540 5548 5549 5553 5559 5565 5566 5570 5572 5575 5574 5575 5571 5565 5566 5564 5565 5561 5553 5554 5549 5549 5543 5537 5534 5533 5529 5526 5520 5511 5511 5512 5510 5510 5509 5506
5444 5448 5451 5467 5485 5501 5511 5520 5533 5541 5542 5541 5552 5554 5557 5558 5563 5564 5564 5560 5560 5558 5553 5554 5558 5557 5551 5551 5544 5540 5538 5532 5527 5526 5522 5515 5513 5511 5507 5503 5503 5500 5500 5500
5419 5441 5451 5481 5483 5501 5511 5516 5524 5526 5536 5540 5539 5548 5554 5541 5551 5552 5545 5551 5551 5550 5547 5545 5546 5547 5542 5545 5538 5535 5535 5528 5523 5518 5515 5509 5505 5505 5501 5495 5491 5493 5493 5495